Regional Weather Roundup
Issued by NWS

Home | Current Version | Previous Version | Graphics & Text | Print | Product List | Glossary On
Versions: 1 2 3 4 5 6 7 8 9 10 11 12 13 14 15 16 17 18 19 20 21 22 23 24 25 26 27 28 29 30 31 32 33 34 35 36 37 38 39 40 41 42 43 44 45 46 47 48 49 50
000
ASUS45 KBOI 171310
RWRID
WEATHER ROUNDUP FOR IDAHO
NATIONAL WEATHER SERVICE BOISE ID
600 AM MST WED DEC 17 2014

NOTE: "FAIR" INDICATES FEW OR NO CLOUDS BELOW 12000 FEET
WITH NO SIGNIFICANT WEATHER AND/OR OBSTRUCTIONS TO VISIBILITY

IDZ012-014-171400-
SOUTHWEST IDAHO


CITY           SKY/WX    TMP DP  RH WIND       PRES   REMARKS
BOISE          CLEAR     28  26  92 CALM      29.96S
CALDWELL       CLEAR     28  21  74 NE7       29.99R WCI  21
MOUNTAIN HOME  CLEAR     31  29  92 SE15      29.96S WCI  21
$$

IDZ016-017-171400-
SOUTHCENTRAL IDAHO


CITY           SKY/WX    TMP DP  RH WIND       PRES   REMARKS
BURLEY         CLEAR     22  19  89 CALM      29.97F FOG
JEROME         CLEAR     29  25  85 NE14      29.97S WCI  18
TWIN FALLS     CLEAR     26  20  77 CALM      29.96F
$$

IDZ019>023-171400-
SOUTHEAST IDAHO


CITY           SKY/WX    TMP DP  RH WIND       PRES   REMARKS
IDAHO FALLS    FOG       28  27  96 CALM      30.00S VSB 1/4
POCATELLO      FOG       26  25  96 CALM      30.00F VSB 1/4
REXBURG        CLOUDY    30  29  96 CALM      30.00R FOG
$$

IDZ006-010-011-018-031-032-171400-
CENTRAL IDAHO MOUNTAINS


CITY           SKY/WX    TMP DP  RH WIND       PRES   REMARKS
MCCALL         CLOUDY    27  25  92 CALM      29.91S
HAILEY         MOCLDY    27  25  93 NW5       29.98S WCI  21
STANLEY          N/A     21  17  84 CALM      29.95R
SALMON         CLOUDY    25  21  86 CALM      29.99S
CHALLIS        CLOUDY    22  21  96 CALM      29.97S FOG
$$

IDZ002-004-006-007-026-171400-
NORTHERN IDAHO


CITY           SKY/WX    TMP DP  RH WIND       PRES   REMARKS
LEWISTON       CLEAR     38  32  79 CALM      29.94S
LOWELL           N/A     32  30  92 CALM      30.03R
COEUR D`ALENE  CLOUDY    34  28  80 NE10      29.93S WCI  26
MULLAN PASS    CLOUDY    26  23  88 S7        29.85S FOG     WCI  18
$$



USA.gov is the U.S. government's official web portal to all federal, state and local government web resources and services.